This is the latest recevied weather packets stored in our database for station/object WA7CUG. If no packets are shown the sender has not sent any weather packets the latest 10 day(s).
| Time | Temp. | Humidity | Pressure | Rain* | Wind** | Luminosity | Snow |
|---|---|---|---|---|---|---|---|
| 1777616904 | 12.22° C | 58% | 1018.6 hPa | 0 mm | - | 0 W/m² | - |
| 1777616600 | 12.22° C | 58% | 1018.4 hPa | 0 mm | - | 0 W/m² | - |
| 1777616296 | 12.78° C | 54% | 1018.3 hPa | 0 mm | - | 0 W/m² | - |
| 1777615993 | 13.33° C | 51% | 1018.6 hPa | 0 mm | - | 0 W/m² | - |
| 1777615689 | 12.78° C | 51% | 1018.6 hPa | 0 mm | - | 0 W/m² | - |
| 1777615386 | 13.33° C | 52% | 1018.5 hPa | 0 mm | - | 0 W/m² | - |
| 1777615085 | 13.33° C | 51% | 1018.3 hPa | 0 mm | - | 0 W/m² | - |
| 1777614781 | 13.33° C | 51% | 1018.4 hPa | 0 mm | - | 0 W/m² | - |
| 1777614476 | 13.33° C | 51% | 1018.5 hPa | 0 mm | - | 0 W/m² | - |
| 1777614173 | 13.33° C | 52% | 1018.6 hPa | 0 mm | - | 0 W/m² | - |
| 1777613873 | 13.33° C | 51% | 1018.4 hPa | 0 mm | - | 0 W/m² | - |
| 1777613571 | 13.89° C | 51% | 1018.4 hPa | 0 mm | - | 0 W/m² | - |
| 1777613267 | 13.33° C | 50% | 1018.4 hPa | 0 mm | - | 0 W/m² | - |
| 1777612964 | 13.33° C | 51% | 1018.3 hPa | 0 mm | - | 0 W/m² | - |
| 1777612659 | 13.89° C | 51% | 1018.4 hPa | 0 mm | - | 0 W/m² | - |
| 1777612356 | 13.89° C | 53% | 1018.4 hPa | 0 mm | - | 0 W/m² | - |
| 1777612050 | 13.89° C | 53% | 1018.1 hPa | 0 mm | - | 0 W/m² | - |
| 1777611746 | 13.89° C | 55% | 1018.4 hPa | 0 mm | - | 0 W/m² | - |
| 1777611443 | 13.89° C | 54% | 1018.3 hPa | 0 mm | - | 0 W/m² | - |
| 1777611140 | 14.44° C | 53% | 1018.3 hPa | 0 mm | - | 0 W/m² | - |
| 1777610835 | 15° C | 50% | 1018.4 hPa | 0 mm | - | 0 W/m² | - |
| 1777610530 | 14.44° C | 53% | 1018.2 hPa | 0 mm | - | 0 W/m² | - |
| 1777610225 | 14.44° C | 56% | 1018.4 hPa | 0 mm | - | 0 W/m² | - |
| 1777609923 | 14.44° C | 54% | 1018.2 hPa | 0 mm | - | 0 W/m² | - |
| 1777609619 | 15° C | 52% | 1018.2 hPa | 0 mm | - | 0 W/m² | - |
* Rain latest hour (hover to see other rain measurements)
** Current wind speed in m/s (hover to see current wind gust speed)